Location: Dal�� Lhota
(48.7500°N, 14.0167°E)
Time: 02:31:21
(UTC+00:00)

Transit 2A - Pass Details

Date: 27 July 2021
Orbit: 594 x 964 km, 66.7° (Epoch: 27 September)

Event Time Altitude Azimuth Distance (km) Brightness Sun altitude
Rises 13:19:35 0° 327° (NNW) 3,124 9.1 50.6°
Reaches altitude 10° 13:22:11 10° 340° (NNW) 2,264 8.4 50.2°
Maximum altitude 13:26:37 27° 38° (NE) 1,479 7.4 49.7°
Drops below altitude 10° 13:31:25 10° 96° (E) 2,471 8.4 49.0°
Sets 13:34:22 0° 108° (ESE) 3,467 9.1 48.6°
